SCP
0 0 0 0 0 0 0 0 0 0 0 0 0 0 0 -0 -0 -0 0 0 0 0 0 0 0 0 0 0 0 0 0 0 0 0 0 0 0 0 0 0 0 0 0 0 1
0 0 0 0 0 0 0 0 0 0 0 0 0 0 0 0 0 0 -0 0 0 0 0 0 0 0 0 0 0 0 0 0 0 0 0 0 0 0 0 0 0 0 0 0 0
0 0 0 0 0 0 0 0 0 0 0 0 0 0 0 0 0 0 0 0 0 0 0 0 0 0 0 0 0 0 0 0 0 0 0 0 0 0 0 0 0 0 0 0 -0
0 0 0 0 0 0 0 0 0 0 0 0 0 0 0 0 0 0 0 0 0 0 0 0 0 0 0 0 0 0 0 0 0 0 0 0 0 0 0 0 0 0 0 0 1
0 0 0 0 0 0 0 0 0 0 0 0 0 0 0 0 0 0 0 0 0 0 0 0 0 0 0 0 0 0 0 0 0 0 0 0 0 0 0 0 0 0 0 0 0
0 0 0 0 0 0 0 0 0 0 0 0 0 0 0 0 0 0 0 0 0 0 0 0 0 0 0 0 0 0 0 0 0 0 0 0 0 0 0 0 0 0 0 0 0
0 0 0 0 0 0 0 0 0 0 0 0 0 0 0 -0 0 0 0 0 0 0 0 -0 -0 -0 0 0 0 0 0 0 0 0 0 0 0 0 0 0 0 0 0 0 0
0 0 0 0 0 0 0 0 0 0 0 0 0 0 0 0 0 -0 0 0 0 0 0 -0 0 0 0 0 0 0 0 0 0 0 0 0 0 0 0 0 0 0 0 0 0
0 0 0 0 0 0 0 0 0 0 0 0 0 0 0 0 0 0 0 0 0 0 0 0 0 0 0 0 0 0 0 0 0 0 0 0 -0 0 0 0 0 0 0 0 0
0 0 0 0 0 0 0 0 0 0 0 0 0 0 0 0 0 0 0 0 0 0 0 0 0 0 0 0 0 0 0 0 0 0 0 0 0 0 0 0 0 0 0 0 0
0 0 0 0 0 0 0 0 0 -0 0 0 0 0 0 -0 0 0 0 0 0 0 0 0 0 0 0 0 0 -0 -0 -0 0 0 0 0 0 0 0 0 0 0 0 0 0
0 0 0 0 0 0 0 0 0 0 0 0 0 0 0 0 0 0 0 0 0 0 0 0 0 0 0 0 -0 -0 0 0 0 0 0 0 0 0 0 0 0 0 0 0 0
0 0 0 0 0 0 0 0 0 0 0 0 0 0 0 0 0 0 0 0 0 0 0 0 0 0 -0 -0 0 0 0 0 0 0 0 0 0 0 0 0 0 0 0 0 -0
0 0 0 0 0 0 0 0 -0 0 0 0 0 0 -0 0 0 -0 0 0 0 0 0 0 -0 0 0 -0 -0 0 0 0 0 0 0 -0 0 0 0 0 0 0 0 0 0
0 0 0 0 0 0 0 0 0 0 0 0 0 0 -0 0 0 -0 0 0 0 0 0 0 0 -0 0 -0 0 0 0 0 0 0 0 0 0 0 0 0 0 0 0 0 0
0 0 0 0 0 0 0 0 0 0 0 0 -0 0 0 0 -0 -0 -0 0 0 -0 0 -0 0 0 0 0 0 0 0 0 0 0 0 0 0 0 0 0 0 0 0 0 0
0 0 0 0 0 0 -0 0 0 0 0 0 0 -0 0 0 0 0 0 0 0 0 -0 0 -0 0 0 0 0 0 0 0 0 0 0 -0 0 0 0 0 0 0 0 0 0
0 0 0 0 0 0 0 0 0 0 0 0 -0 0 0 0 0 0 -0 0 -0 -0 0 0 0 0 0 -0 0 0 -0 0 0 0 -0 -0 0 0 0 0 0 0 0 0 0
0 0 0 0 -0 0 0 0 0 0 0 0 -0 0 0 0 0 0 0 0 0 -0 -0 0 0 0 0 0 -0 0 0 -0 0 0 0 0 0 0 0 0 0 0 -0 0 0
0 0 0 0 0 0 0 0 0 -0 -0 -0 0 0 0 -0 0 0 0 0 0 0 -0 0 0 0 0 0 0 0 0 0 0 0 0 0 0 0 0 0 -0 0 0 0 0
0 0 0 0 0 0 0 0 -0 -0 -0 -0 -0 0 0 0 -0 0 0 0 0 0 0 0 0 0 0 0 0 -0 0 0 0 0 0 0 -0 0 0 0 0 -0 0 0 0
0 0 -0 0 0 0 0 -0 -0 0 0 -0 0 -0 -0 -0 -0 0 0 0 0 0 0 0 0 0 0 0 -0 -0 0 0 0 0 0 0 0 0 0 0 0 0 -0 0 0
0 0 0 0 -0 -0 0 0 -0 -0 -0 0 -0 -0 0 0 0 -0 -0 0 0 0 0 0 0 0 0 0 0 0 -0 0 0 0 -0 0 0 0 0 0 0 -0 -0 0 0
0 0 0 -0 -0 0 0 -0 -0 -0 0 0 0 0 0 -0 0 0 0 0 0 0 0 0 0 0 0 0 0 0 -0 0 0 0 0 0 0 0 -0 0 0 -0 -0 0 0
0 0 0 0 -0 -0 -0 -0 -0 0 0 -0 -0 0 0 0 0 0 0 0 0 0 0 0 0 -0 0 0 0 0 0 0 0 0 0 0 0 -0 0 -0 0 0 0 0 0
0 0 -0 0 -0 -0 0 -0 -0 -0 0 -0 -0 -0 0 0 0 0 0 0 0 0 0 0 -0 0 0 0 -0 0 0 0 0 0 0 0 0 0 0 0 0 0 0 0 0
0 0 -0 -0 -0 -0 -0 -0 -0 -0 -0 0 -0 0 0 0 0 0 0 0 0 0 0 1 0 0 0 0 0 0 0 0 0 0 0 0 0 0 0 0 0 0 0 0 0
Wind_Speed_500mb
33 33 33 32 33 35 37 38 39 41 43 45 44 44 41 43 48 50 61 48 18 26 31 18 23 27 34 42 47 51 32 38 54 52 42 55 47 39 29 33 56 31 36 11 15
36 35 34 33 33 35 38 40 42 45 47 49 49 49 45 45 55 68 65 50 42 41 32 32 31 34 43 39 52 41 34 55 47 43 46 54 54 41 45 44 52 35 15 3 12
39 38 39 39 39 40 40 40 42 45 47 48 48 48 46 37 47 28 25 30 46 45 44 33 34 38 45 49 51 56 48 44 54 61 60 55 56 62 47 29 44 50 36 23 5
40 42 43 45 44 45 45 43 43 45 46 47 46 43 40 21 15 1 14 9 26 39 39 40 45 48 38 43 58 49 61 62 56 56 46 49 58 55 58 35 38 51 57 16 21
43 45 47 48 49 49 49 47 46 46 48 45 42 38 30 27 59 32 45 16 22 31 44 48 48 49 43 42 49 49 45 57 58 58 59 59 49 51 60 55 40 8 21 17 5
45 46 48 49 51 51 50 48 45 46 46 44 41 33 27 45 40 38 57 44 40 32 40 44 40 44 45 45 45 49 51 47 49 54 49 50 51 54 54 54 49 26 48 33 23
49 51 52 52 52 53 53 52 49 49 48 45 45 33 41 83 23 22 41 46 41 44 44 42 44 40 41 38 48 54 42 37 40 46 42 42 47 58 49 55 62 68 43 45 40
56 56 55 57 54 56 57 56 52 50 48 44 27 23 37 54 20 56 43 50 45 50 45 41 38 45 46 41 47 35 41 40 40 38 40 49 50 47 64 58 61 67 64 42 41
62 59 57 57 57 55 57 56 54 51 39 22 19 31 31 23 51 49 54 52 46 43 46 43 36 45 40 38 33 42 34 43 42 41 38 44 52 40 52 65 67 72 67 52 68
66 65 62 58 60 58 60 58 44 27 10 7 20 18 38 40 31 51 59 52 50 43 40 42 40 35 35 33 37 37 43 36 38 42 37 44 47 41 53 57 54 74 71 73 57
67 68 67 64 60 57 64 52 15 14 33 33 33 31 30 25 24 44 59 59 51 49 41 55 35 40 50 50 45 44 43 40 38 33 36 42 43 42 44 55 54 65 56 75 65
71 71 70 65 62 52 47 21 27 36 59 60 70 80 79 48 32 40 59 65 56 49 47 38 45 48 48 50 51 49 43 36 22 20 28 35 37 36 35 38 51 57 62 63 68
72 71 68 63 60 38 24 33 44 45 44 71 80 94 86 70 66 52 71 76 57 56 55 51 42 52 52 49 49 45 40 36 28 24 33 24 37 37 36 51 57 61 64 72 80
70 69 67 66 45 17 44 38 28 26 21 37 63 79 86 64 57 69 76 80 38 57 53 50 54 52 53 52 44 42 39 40 31 24 25 31 23 31 22 33 36 47 56 65 73
72 72 72 59 48 52 30 26 26 18 15 27 22 28 36 75 20 80 68 75 58 43 50 53 47 50 50 50 43 34 34 37 29 27 30 39 22 25 25 17 28 33 53 66 64
75 71 74 64 39 61 43 28 21 15 30 17 24 24 38 56 74 44 82 79 68 55 44 53 58 45 41 37 39 37 34 31 37 31 29 38 35 28 31 9 18 34 27 46 45
79 73 70 64 67 35 34 32 17 23 17 33 42 37 13 19 8 52 45 59 51 52 49 47 52 46 37 39 41 38 33 23 25 23 27 37 35 31 26 20 9 29 50 24 39
83 79 66 52 42 25 21 21 36 24 48 53 63 49 36 13 7 47 46 38 61 54 34 38 42 51 42 48 38 44 39 23 33 22 27 35 33 14 28 34 39 52 29 10 36
82 66 65 45 37 41 39 29 40 46 53 54 55 48 44 8 20 8 19 50 34 56 43 31 41 50 44 39 44 42 40 40 36 11 9 25 12 28 27 20 33 42 48 33 42
70 63 63 23 26 22 13 35 53 58 59 57 54 53 43 28 21 18 19 12 31 39 46 29 29 36 41 38 42 42 38 35 25 13 13 30 20 13 26 21 39 36 43 48 46
52 38 34 5 8 12 18 40 46 72 56 47 56 49 48 16 7 8 6 23 23 32 46 37 10 21 38 37 37 33 20 20 14 5 14 11 9 11 20 9 26 38 41 51 52
41 19 38 65 16 10 20 45 57 41 61 35 23 41 15 5 14 17 14 9 24 8 15 48 20 20 31 45 39 39 33 26 13 18 11 12 8 29 16 17 20 10 42 43 49
44 52 27 64 13 21 26 37 16 36 35 16 23 26 8 10 13 34 26 19 24 12 17 21 15 9 16 18 17 40 39 17 20 8 9 18 9 19 19 26 15 35 48 47 45
19 17 35 16 29 16 17 27 33 33 27 16 22 30 16 3 25 5 9 3 11 18 40 25 13 16 18 23 19 34 42 29 22 9 12 7 16 19 10 12 38 48 44 43 39
10 10 22 18 31 42 40 37 43 19 22 29 16 27 31 21 15 15 5 14 20 17 22 21 25 36 26 15 19 27 33 38 36 20 13 11 6 34 38 38 18 16 33 40 38
18 14 30 35 54 39 27 20 41 51 22 24 21 33 27 4 5 7 13 14 14 30 42 39 27 20 15 16 24 36 27 19 21 22 7 12 11 22 22 26 23 14 31 25 39
38 35 16 33 32 32 23 43 52 48 16 28 37 30 10 9 15 25 1 9 12 17 19 20 23 27 23 32 23 7 10 20 18 13 14 3 22 29 25 25 19 18 30 34 23
Wind_Direction_500mb
327 325 321 316 307 306 305 303 300 299 298 298 300 301 303 304 297 288 270 256 231 242 227 225 236 223 224 232 228 227 238 241 241 244 247 258 265 239 191 239 261 281 267 52 186
324 323 321 317 310 306 303 302 300 298 295 295 296 298 302 308 304 287 272 263 247 237 230 224 227 220 219 222 230 226 231 238 244 249 262 267 266 248 193 206 238 231 277 340 218
323 320 316 313 307 304 303 302 302 299 297 294 293 295 298 308 309 274 276 244 240 234 232 229 231 224 224 225 223 229 239 239 244 254 260 265 272 274 274 214 205 223 249 247 202
325 320 317 315 311 307 305 303 302 300 298 296 295 294 295 297 266 241 2 251 204 224 218 218 225 235 226 229 229 229 237 240 259 265 254 258 270 272 281 266 241 214 228 202 242
325 324 321 318 315 312 309 307 304 301 301 298 294 292 296 249 246 240 292 253 179 195 203 207 218 224 233 232 238 237 242 239 241 246 257 267 263 257 270 281 240 227 147 199 206
325 324 321 318 314 312 308 304 300 297 297 296 291 285 274 259 271 252 245 241 239 204 209 213 221 223 236 236 239 241 243 248 252 252 241 248 258 258 255 259 271 225 189 221 229
325 322 319 315 312 310 309 306 303 298 297 295 288 269 257 247 246 261 213 232 217 214 213 221 226 236 234 247 245 255 262 254 237 249 248 249 246 247 244 249 261 268 190 195 209
323 322 319 316 314 312 311 308 307 303 293 287 281 245 245 272 262 214 220 228 223 215 222 224 227 243 247 255 252 242 241 248 244 229 234 251 246 241 244 240 250 260 261 197 218
324 321 319 316 314 314 311 310 310 299 289 279 243 210 263 288 220 220 204 215 210 212 218 225 233 236 231 238 239 231 237 233 244 247 228 224 247 246 253 230 242 259 256 237 213
321 320 318 316 315 318 313 312 309 285 275 216 221 200 256 242 232 211 208 208 199 203 212 217 230 230 223 223 223 227 223 238 243 224 233 237 238 240 245 256 256 232 248 254 235
321 321 319 320 321 319 313 322 265 223 213 210 218 221 270 243 255 200 198 201 204 203 209 209 217 216 215 223 227 239 232 228 222 224 245 229 236 243 238 232 241 258 239 241 245
324 323 324 323 319 315 301 265 262 297 296 250 247 246 254 257 238 207 192 196 203 207 207 213 221 221 219 221 227 235 251 258 240 238 230 250 257 251 250 242 237 243 248 251 251
326 325 323 319 320 316 295 264 291 294 276 273 256 237 243 243 238 215 190 198 200 205 204 213 206 221 229 222 220 227 237 244 249 247 232 263 262 250 245 237 232 241 238 240 250
323 322 320 319 322 297 286 290 300 307 282 285 247 238 234 223 243 228 191 201 201 211 214 214 227 203 220 228 222 219 215 239 243 246 260 242 276 270 261 253 226 228 241 237 248
322 321 319 318 293 294 281 299 304 284 275 310 30 159 203 198 189 208 205 201 219 204 209 218 215 225 203 224 216 226 218 220 236 245 262 267 255 262 284 280 280 237 226 236 236
321 319 316 311 285 283 289 294 279 239 247 259 291 175 204 200 217 227 208 204 214 234 220 230 216 222 220 211 216 218 233 224 222 230 234 241 254 254 260 254 322 337 304 250 224
322 317 309 298 275 291 288 229 242 233 277 261 245 293 307 325 266 225 213 195 208 215 229 217 234 209 230 204 205 214 213 219 225 228 240 244 243 253 97 92 69 40 16 301 79
325 320 310 297 270 279 248 233 236 263 240 257 278 277 266 140 227 278 231 229 206 218 214 222 207 210 205 221 194 208 211 217 218 221 246 249 242 185 127 111 98 76 57 135 115
330 324 302 289 264 218 222 234 239 249 258 270 279 278 279 163 190 268 352 194 236 216 220 224 236 208 205 200 214 196 218 228 252 56 282 286 126 134 146 150 146 165 191 126 110
327 319 305 343 206 196 236 263 268 275 280 285 283 286 276 258 203 203 159 175 230 271 256 202 230 225 199 194 214 234 213 218 230 175 246 265 281 127 160 177 190 155 135 127 114
333 317 317 152 202 248 240 254 257 258 267 287 283 274 271 332 30 221 242 155 165 277 274 222 175 231 256 200 198 216 199 245 296 221 206 243 256 111 144 125 332 134 130 123 120
330 299 311 316 301 253 261 265 271 311 303 288 314 269 261 189 277 202 229 235 110 229 203 222 184 246 238 204 205 215 220 191 219 234 189 176 314 12 16 59 88 253 133 126 122
321 301 329 357 302 305 326 315 272 275 278 277 232 252 291 181 203 219 194 223 211 236 213 217 191 195 264 236 229 214 222 119 247 78 302 280 123 17 42 58 165 204 129 124 119
302 308 340 19 349 283 308 301 302 304 272 315 304 314 278 130 227 233 207 230 247 225 234 262 166 170 211 203 191 209 220 150 193 195 179 335 135 107 88 24 287 116 128 123 117
293 320 343 326 326 328 336 327 337 320 348 31 354 7 317 232 219 240 237 285 284 252 251 225 198 166 205 70 249 215 205 210 184 170 189 185 227 168 155 177 117 78 106 129 120
326 326 331 300 318 328 2 334 312 325 340 5 353 337 288 128 216 292 221 224 248 211 242 229 191 120 139 112 182 214 211 232 191 242 164 39 93 121 133 87 126 89 119 75 73
328 320 315 315 324 337 336 323 324 330 38 34 340 307 37 37 338 306 193 302 301 312 245 159 180 144 156 160 122 38 253 237 139 90 151 113 118 107 118 82 343 89 111 97 81
Wind_Speed_850mb
33 33 33 32 33 35 37 38 39 41 43 45 44 44 41 43 48 50 61 48 18 26 31 18 23 27 34 42 47 51 32 38 54 52 42 55 47 39 29 33 56 31 36 11 15
36 35 34 33 33 35 38 40 42 45 47 49 49 49 45 45 55 68 65 50 42 41 32 32 31 34 43 39 52 41 34 55 47 43 46 54 54 41 45 44 52 35 15 3 12
39 38 39 39 39 40 40 40 42 45 47 48 48 48 46 37 47 28 25 30 46 45 44 33 34 38 45 49 51 56 48 44 54 61 60 55 56 62 47 29 44 50 36 23 5
40 42 43 45 44 45 45 43 43 45 46 47 46 43 40 21 15 1 14 9 26 39 39 40 45 48 38 43 58 49 61 62 56 56 46 49 58 55 58 35 38 51 57 16 21
43 45 47 48 49 49 49 47 46 46 48 45 42 38 30 27 59 32 45 16 22 31 44 48 48 49 43 42 49 49 45 57 58 58 59 59 49 51 60 55 40 8 21 17 5
45 46 48 49 51 51 50 48 45 46 46 44 41 33 27 45 40 38 57 44 40 32 40 44 40 44 45 45 45 49 51 47 49 54 49 50 51 54 54 54 49 26 48 33 23
49 51 52 52 52 53 53 52 49 49 48 45 45 33 41 83 23 22 41 46 41 44 44 42 44 40 41 38 48 54 42 37 40 46 42 42 47 58 49 55 62 68 43 45 40
56 56 55 57 54 56 57 56 52 50 48 44 27 23 37 54 20 56 43 50 45 50 45 41 38 45 46 41 47 35 41 40 40 38 40 49 50 47 64 58 61 67 64 42 41
62 59 57 57 57 55 57 56 54 51 39 22 19 31 31 23 51 49 54 52 46 43 46 43 36 45 40 38 33 42 34 43 42 41 38 44 52 40 52 65 67 72 67 52 68
66 65 62 58 60 58 60 58 44 27 10 7 20 18 38 40 31 51 59 52 50 43 40 42 40 35 35 33 37 37 43 36 38 42 37 44 47 41 53 57 54 74 71 73 57
67 68 67 64 60 57 64 52 15 14 33 33 33 31 30 25 24 44 59 59 51 49 41 55 35 40 50 50 45 44 43 40 38 33 36 42 43 42 44 55 54 65 56 75 65
71 71 70 65 62 52 47 21 27 36 59 60 70 80 79 48 32 40 59 65 56 49 47 38 45 48 48 50 51 49 43 36 22 20 28 35 37 36 35 38 51 57 62 63 68
72 71 68 63 60 38 24 33 44 45 44 71 80 94 86 70 66 52 71 76 57 56 55 51 42 52 52 49 49 45 40 36 28 24 33 24 37 37 36 51 57 61 64 72 80
70 69 67 66 45 17 44 38 28 26 21 37 63 79 86 64 57 69 76 80 38 57 53 50 54 52 53 52 44 42 39 40 31 24 25 31 23 31 22 33 36 47 56 65 73
72 72 72 59 48 52 30 26 26 18 15 27 22 28 36 75 20 80 68 75 58 43 50 53 47 50 50 50 43 34 34 37 29 27 30 39 22 25 25 17 28 33 53 66 64
75 71 74 64 39 61 43 28 21 15 30 17 24 24 38 56 74 44 82 79 68 55 44 53 58 45 41 37 39 37 34 31 37 31 29 38 35 28 31 9 18 34 27 46 45
79 73 70 64 67 35 34 32 17 23 17 33 42 37 13 19 8 52 45 59 51 52 49 47 52 46 37 39 41 38 33 23 25 23 27 37 35 31 26 20 9 29 50 24 39
83 79 66 52 42 25 21 21 36 24 48 53 63 49 36 13 7 47 46 38 61 54 34 38 42 51 42 48 38 44 39 23 33 22 27 35 33 14 28 34 39 52 29 10 36
82 66 65 45 37 41 39 29 40 46 53 54 55 48 44 8 20 8 19 50 34 56 43 31 41 50 44 39 44 42 40 40 36 11 9 25 12 28 27 20 33 42 48 33 42
70 63 63 23 26 22 13 35 53 58 59 57 54 53 43 28 21 18 19 12 31 39 46 29 29 36 41 38 42 42 38 35 25 13 13 30 20 13 26 21 39 36 43 48 46
52 38 34 5 8 12 18 40 46 72 56 47 56 49 48 16 7 8 6 23 23 32 46 37 10 21 38 37 37 33 20 20 14 5 14 11 9 11 20 9 26 38 41 51 52
41 19 38 65 16 10 20 45 57 41 61 35 23 41 15 5 14 17 14 9 24 8 15 48 20 20 31 45 39 39 33 26 13 18 11 12 8 29 16 17 20 10 42 43 49
44 52 27 64 13 21 26 37 16 36 35 16 23 26 8 10 13 34 26 19 24 12 17 21 15 9 16 18 17 40 39 17 20 8 9 18 9 19 19 26 15 35 48 47 45
19 17 35 16 29 16 17 27 33 33 27 16 22 30 16 3 25 5 9 3 11 18 40 25 13 16 18 23 19 34 42 29 22 9 12 7 16 19 10 12 38 48 44 43 39
10 10 22 18 31 42 40 37 43 19 22 29 16 27 31 21 15 15 5 14 20 17 22 21 25 36 26 15 19 27 33 38 36 20 13 11 6 34 38 38 18 16 33 40 38
18 14 30 35 54 39 27 20 41 51 22 24 21 33 27 4 5 7 13 14 14 30 42 39 27 20 15 16 24 36 27 19 21 22 7 12 11 22 22 26 23 14 31 25 39
38 35 16 33 32 32 23 43 52 48 16 28 37 30 10 9 15 25 1 9 12 17 19 20 23 27 23 32 23 7 10 20 18 13 14 3 22 29 25 25 19 18 30 34 23
Wind_Direction_850mb
327 325 321 316 307 306 305 303 300 299 298 298 300 301 303 304 297 288 270 256 231 242 227 225 236 223 224 232 228 227 238 241 241 244 247 258 265 239 191 239 261 281 267 52 186
324 323 321 317 310 306 303 302 300 298 295 295 296 298 302 308 304 287 272 263 247 237 230 224 227 220 219 222 230 226 231 238 244 249 262 267 266 248 193 206 238 231 277 340 218
323 320 316 313 307 304 303 302 302 299 297 294 293 295 298 308 309 274 276 244 240 234 232 229 231 224 224 225 223 229 239 239 244 254 260 265 272 274 274 214 205 223 249 247 202
325 320 317 315 311 307 305 303 302 300 298 296 295 294 295 297 266 241 2 251 204 224 218 218 225 235 226 229 229 229 237 240 259 265 254 258 270 272 281 266 241 214 228 202 242
325 324 321 318 315 312 309 307 304 301 301 298 294 292 296 249 246 240 292 253 179 195 203 207 218 224 233 232 238 237 242 239 241 246 257 267 263 257 270 281 240 227 147 199 206
325 324 321 318 314 312 308 304 300 297 297 296 291 285 274 259 271 252 245 241 239 204 209 213 221 223 236 236 239 241 243 248 252 252 241 248 258 258 255 259 271 225 189 221 229
325 322 319 315 312 310 309 306 303 298 297 295 288 269 257 247 246 261 213 232 217 214 213 221 226 236 234 247 245 255 262 254 237 249 248 249 246 247 244 249 261 268 190 195 209
323 322 319 316 314 312 311 308 307 303 293 287 281 245 245 272 262 214 220 228 223 215 222 224 227 243 247 255 252 242 241 248 244 229 234 251 246 241 244 240 250 260 261 197 218
324 321 319 316 314 314 311 310 310 299 289 279 243 210 263 288 220 220 204 215 210 212 218 225 233 236 231 238 239 231 237 233 244 247 228 224 247 246 253 230 242 259 256 237 213
321 320 318 316 315 318 313 312 309 285 275 216 221 200 256 242 232 211 208 208 199 203 212 217 230 230 223 223 223 227 223 238 243 224 233 237 238 240 245 256 256 232 248 254 235
321 321 319 320 321 319 313 322 265 223 213 210 218 221 270 243 255 200 198 201 204 203 209 209 217 216 215 223 227 239 232 228 222 224 245 229 236 243 238 232 241 258 239 241 245
324 323 324 323 319 315 301 265 262 297 296 250 247 246 254 257 238 207 192 196 203 207 207 213 221 221 219 221 227 235 251 258 240 238 230 250 257 251 250 242 237 243 248 251 251
326 325 323 319 320 316 295 264 291 294 276 273 256 237 243 243 238 215 190 198 200 205 204 213 206 221 229 222 220 227 237 244 249 247 232 263 262 250 245 237 232 241 238 240 250
323 322 320 319 322 297 286 290 300 307 282 285 247 238 234 223 243 228 191 201 201 211 214 214 227 203 220 228 222 219 215 239 243 246 260 242 276 270 261 253 226 228 241 237 248
322 321 319 318 293 294 281 299 304 284 275 310 30 159 203 198 189 208 205 201 219 204 209 218 215 225 203 224 216 226 218 220 236 245 262 267 255 262 284 280 280 237 226 236 236
321 319 316 311 285 283 289 294 279 239 247 259 291 175 204 200 217 227 208 204 214 234 220 230 216 222 220 211 216 218 233 224 222 230 234 241 254 254 260 254 322 337 304 250 224
322 317 309 298 275 291 288 229 242 233 277 261 245 293 307 325 266 225 213 195 208 215 229 217 234 209 230 204 205 214 213 219 225 228 240 244 243 253 97 92 69 40 16 301 79
325 320 310 297 270 279 248 233 236 263 240 257 278 277 266 140 227 278 231 229 206 218 214 222 207 210 205 221 194 208 211 217 218 221 246 249 242 185 127 111 98 76 57 135 115
330 324 302 289 264 218 222 234 239 249 258 270 279 278 279 163 190 268 352 194 236 216 220 224 236 208 205 200 214 196 218 228 252 56 282 286 126 134 146 150 146 165 191 126 110
327 319 305 343 206 196 236 263 268 275 280 285 283 286 276 258 203 203 159 175 230 271 256 202 230 225 199 194 214 234 213 218 230 175 246 265 281 127 160 177 190 155 135 127 114
333 317 317 152 202 248 240 254 257 258 267 287 283 274 271 332 30 221 242 155 165 277 274 222 175 231 256 200 198 216 199 245 296 221 206 243 256 111 144 125 332 134 130 123 120
330 299 311 316 301 253 261 265 271 311 303 288 314 269 261 189 277 202 229 235 110 229 203 222 184 246 238 204 205 215 220 191 219 234 189 176 314 12 16 59 88 253 133 126 122
321 301 329 357 302 305 326 315 272 275 278 277 232 252 291 181 203 219 194 223 211 236 213 217 191 195 264 236 229 214 222 119 247 78 302 280 123 17 42 58 165 204 129 124 119
302 308 340 19 349 283 308 301 302 304 272 315 304 314 278 130 227 233 207 230 247 225 234 262 166 170 211 203 191 209 220 150 193 195 179 335 135 107 88 24 287 116 128 123 117
293 320 343 326 326 328 336 327 337 320 348 31 354 7 317 232 219 240 237 285 284 252 251 225 198 166 205 70 249 215 205 210 184 170 189 185 227 168 155 177 117 78 106 129 120
326 326 331 300 318 328 2 334 312 325 340 5 353 337 288 128 216 292 221 224 248 211 242 229 191 120 139 112 182 214 211 232 191 242 164 39 93 121 133 87 126 89 119 75 73
328 320 315 315 324 337 336 323 324 330 38 34 340 307 37 37 338 306 193 302 301 312 245 159 180 144 156 160 122 38 253 237 139 90 151 113 118 107 118 82 343 89 111 97 81